Location: Gorze? G�rny
(49.8500°N, 19.5000°E)
Time: 13:02:06
(UTC+00:00)

Cosmos 1934 Rocket - Pass Details

Date: 13 May 2021
Orbit: 937 x 1000 km, 83.0° (Epoch: 22 June)

Event Time Altitude Azimuth Distance (km) Brightness Sun altitude
Rises 22:32:55 0° 350° (N) 3,656 8.5 -21.5°
Reaches altitude 10° 22:35:27 10° 352° (N) 2,697 7.5 -21.5°
Maximum altitude 22:41:38 81° 80° (E) 965 3.9 -21.5°
Enters shadow 22:43:58 40° 162° (SSE) 1,358 4.3 -21.5°
